TimePDT,TemperatureF,Dew PointF,Humidity,Sea Level PressureIn,VisibilityMPH,Wind Direction,Wind SpeedMPH,Gust SpeedMPH,PrecipitationIn,Events,Conditions,WindDirDegrees,DateUTC
12:53 AM,28.0,24.1,85,30.22,10.0,SSE,8.1,-,N/A,,Clear,160,2013-03-12 07:53:00
1:53 AM,27.0,23.0,85,30.22,10.0,SSE,6.9,-,N/A,,Clear,160,2013-03-12 08:53:00
2:53 AM,26.1,23.0,88,30.21,10.0,South,8.1,-,N/A,,Clear,170,2013-03-12 09:53:00
3:53 AM,26.1,23.0,88,30.21,10.0,South,11.5,-,N/A,,Clear,170,2013-03-12 10:53:00
4:53 AM,27.0,23.0,85,30.22,10.0,South,8.1,-,N/A,,Clear,170,2013-03-12 11:53:00
5:53 AM,25.0,21.9,88,30.24,10.0,South,9.2,-,N/A,,Clear,180,2013-03-12 12:53:00
6:53 AM,24.1,21.0,88,30.28,10.0,South,9.2,-,N/A,,Clear,170,2013-03-12 13:53:00
7:53 AM,28.0,24.1,85,30.29,10.0,South,6.9,-,N/A,,Clear,180,2013-03-12 14:53:00
8:53 AM,36.0,27.0,70,30.27,10.0,South,6.9,-,N/A,,Clear,190,2013-03-12 15:53:00
9:53 AM,43.0,27.0,53,30.28,10.0,SSE,5.8,-,N/A,,Clear,160,2013-03-12 16:53:00
10:53 AM,51.1,26.1,38,30.25,10.0,Calm,Calm,-,N/A,,Clear,0,2013-03-12 17:53:00
11:53 AM,53.1,24.1,32,30.24,10.0,Calm,Calm,-,N/A,,Clear,0,2013-03-12 18:53:00
12:53 PM,55.0,24.1,30,30.22,10.0,North,6.9,-,N/A,,Clear,360,2013-03-12 19:53:00
1:53 PM,57.0,25.0,29,30.19,10.0,North,5.8,-,N/A,,Clear,10,2013-03-12 20:53:00
2:53 PM,59.0,26.1,28,30.17,10.0,NNE,5.8,-,N/A,,Clear,30,2013-03-12 21:53:00
3:53 PM,59.0,27.0,29,30.16,10.0,West,9.2,-,N/A,,Clear,260,2013-03-12 22:53:00
4:53 PM,57.0,25.0,29,30.17,10.0,WNW,8.1,-,N/A,,Clear,290,2013-03-12 23:53:00
5:53 PM,55.9,25.0,30,30.19,10.0,NW,10.4,-,N/A,,Clear,310,2013-03-13 00:53:00
6:53 PM,46.9,27.0,46,30.25,10.0,West,5.8,-,N/A,,Clear,270,2013-03-13 01:53:00
7:53 PM,43.0,26.1,51,30.26,10.0,West,6.9,-,N/A,,Clear,280,2013-03-13 02:53:00
8:53 PM,36.0,27.0,70,30.28,10.0,SSE,9.2,-,N/A,,Clear,160,2013-03-13 03:53:00
9:53 PM,35.1,26.1,70,30.28,10.0,South,8.1,-,N/A,,Clear,180,2013-03-13 04:53:00
10:53 PM,32.0,26.1,79,30.27,10.0,South,9.2,-,N/A,,Clear,170,2013-03-13 05:53:00
11:53 PM,30.9,25.0,79,30.27,10.0,SSE,10.4,-,N/A,,Clear,160,2013-03-13 06:53:00